• Processing (Info)

  • MPEC 2006-C14 : 2006 CF

    The following Minor Planet Electronic Circular may be linked-to from your own Web pages, but must not otherwise be redistributed electronically.

    A form allowing access to any MPEC is at the bottom of this page.


    Read MPEC 2006-C13 Read MPEC 2006-C15


    M.P.E.C. 2006-C14                                Issued 2006 Feb. 3, 18:50 UT
    
         The Minor Planet Electronic Circulars contain information on unusual
             minor planets and routine data on comets.  They are published
       on behalf of Commission 20 of the International Astronomical Union by the
              Minor Planet Center, Smithsonian Astrophysical Observatory,
                              Cambridge, MA 02138, U.S.A.
    
                      Supported in part by the Brinson Foundation
                      Supported in part by the TABASGO Foundation
                 Prepared using the Tamkin Foundation Computer Network
    
                                  MPC@CFA.HARVARD.EDU
              URL http://cfa-www.harvard.edu/iau/mpc.html  ISSN 1523-6714
    
                                        2006 CF
    
    Observations:
         K06C00F* C2006 02 01.27985 09 52 02.25 +17 31 30.6          21.3 V EC014691
         K06C00F  C2006 02 01.30012 09 51 59.69 +17 31 46.7          21.1 V EC014691
         K06C00F  C2006 02 01.31746 09 51 57.44 +17 32 00.6          21.4 V EC014691
         K06C00F 3C2006 02 01.48177 09 51 36.94 +17 34 14.3                 EC014F65
         K06C00F 3C2006 02 01.48301 09 51 36.80 +17 34 15.5          20.2 R EC014F65
         K06C00F 3C2006 02 01.48428 09 51 36.63 +17 34 16.2          20.3 R EC014F65
         K06C00F 3C2006 02 01.48550 09 51 36.45 +17 34 17.8                 EC014F65
         K06C00F  C2006 02 02.34813 09 49 50.05 +17 45 35.2          20.7 V EC014G96
         K06C00F  C2006 02 02.35439 09 49 49.26 +17 45 39.8          20.2 V EC014G96
         K06C00F  C2006 02 02.36064 09 49 48.43 +17 45 44.7          20.9 V EC014G96
         K06C00F  C2006 02 02.36686 09 49 47.67 +17 45 49.7          20.9 V EC014G96
         K06C00F  C2006 02 03.28568 09 47 55.33 +17 57 37.4          21.1 R EC014734
         K06C00F  C2006 02 03.29775 09 47 53.82 +17 57 46.3          21.0 R EC014734
         K06C00F  C2006 02 03.30955 09 47 52.35 +17 57 55.5          21.1 R EC014734
         K06C00F  C2006 02 03.51605 09 47 26.67 +18 00 32.6                 EC014291
         K06C00F  C2006 02 03.52054 09 47 26.09 +18 00 35.8                 EC014291
         K06C00F  C2006 02 03.52518 09 47 25.52 +18 00 39.1                 EC014291
    
    Observer details:
    291 LPL/Spacewatch II.  Observer J. V. Scotti.  1.8-m f/2.7 reflector + CCD.
    691 Steward Observatory, Kitt Peak.  Observer R. S. McMillan.  0.9-m f/3
        reflector + CCD.
    734 Farpoint Observatory.  Observer G. Hug.  0.7-m reflector + CCD.
    F65 Haleakala-Faulkes Telescope North.  Observers C. A. Sawyer, C. J. Barry,
        M. S. S. Cooke, A. S. E. Allen, O. E. D. Fincham, N. P. Lurie,
        G. A. Mayhew, M. J. Fitch, M. E. Morgan, L. M. Voigt, D. M. Tanton,
        A. D. Taylor.  2.0-m Ritchey-Chretien + CCD.
    G96 Mt. Lemmon Survey.  Observer R. Hill.  Measurers E. C. Beshore,
        E. J. Christensen, G. J. Garradd, A. D. Grauer, R. E. Hill, R. A. Kowalski,
        S. M. Larson, R. H. McNaught.  1.5-m reflector + CCD.
    
    Orbital elements:
    2006 CF                                             PHA, Earth MOID = 0.0172 AU
    Epoch 2006 Mar. 6.0 TT = JDT 2453800.5                  MPC
    M  40.92338              (2000.0)            P               Q
    n   0.26975402     Peri.  266.12572     +0.93792786     -0.33808140
    a   2.3722335      Node   113.62083     +0.34219996     +0.86571274
    e   0.7009794      Incl.    4.84662     +0.05648473     +0.36911030
    P   3.65           H   19.6           G   0.15           U   9
    Residuals in seconds of arc
    060201 691  0.0   0.2+    060201 F65  0.1-  0.7+    060203 734  0.2+  0.2-
    060201 691  0.3+  0.1-    060202 G96  0.1-  0.1-    060203 734  0.3+  0.0
    060201 691  0.1-  0.2-    060202 G96  0.0   0.4-    060203 291  0.1+  0.5+
    060201 F65  0.1+  0.2+    060202 G96  0.5-  0.4-    060203 291  0.2-  0.4+
    060201 F65  0.3+  0.4+    060202 G96  0.1-  0.2-    060203 291  0.2-  0.2+
    060201 F65  0.2+  0.1+    060203 734  0.1+  0.1+
    
    Ephemeris:
    2006 CF                  a,e,i = 2.37, 0.70, 5                   q = 0.7093
    Date    TT    R. A. (2000) Decl.     Delta      r     Elong.  Phase     V
    2006 02 04    09 46.48   +18 06.7    0.844    1.824   171.0     4.8    20.9
    2006 02 14    09 27.79   +19 53.2    0.936    1.919   171.5     4.4    21.3
    2006 02 24    09 13.14   +21 03.3    1.056    2.010   158.7    10.3    21.9
    2006 03 06    09 03.28   +21 41.6    1.199    2.099   146.5    15.1    22.4
    2006 03 16    08 58.07   +21 54.9    1.362    2.185   135.4    18.7    22.9
    
    Kyle E. Smalley              (C) Copyright 2006 MPC           M.P.E.C. 2006-C14
    

    Read MPEC 2006-C13 Read MPEC 2006-C15


    MPEC number:

    Enter an MPEC number in one of the following forms:

    • 1997-B01 (the full form)
    • J97B01 (the packed version of the full form)
    • B01 (the abbreviated form)